Flag for Germany Weather past 2 weeks in Buchholz in der Nordheide, Lower Saxony, Germany

Now
64 °F

Passing clouds.


Feels Like: 64 °F
Forecast: 53 / 62 °F
Wind: 20 mph from Southeast

Location: Hamburg-Fuhlsbuettel

Current Time: May 3, 2015 at 3:57:56 PM

Latest Report: May 3, 2015 at 3:20 PM


Visibility: N/A

Pressure: 29.68 "Hg

Humidity: 37%

Dew point: 37 °F

Location of Buchholz in der NordheideLocation

Historic Weather in Buchholz in der Nordheide — Graph

°F

Buchholz in der Nordheide temperature yesterday

Maximum temperature yesterday: 54 °F (at 12:50 PM)
Minimum temperature yesterday: 37 °F (at 1:50 AM)
Average temperature yesterday: 47 °F

Past Weeks' High & Low Weather Summary

 TemperatureHumidityPressure
High64 °F (Apr 20, 2:20 PM)100% (Apr 20, 2:50 AM)30.36 "Hg (Apr 20, 2:50 AM)
Low30 °F (Apr 28, 3:50 AM)32% (Apr 20, 3:20 PM)29.68 "Hg (Apr 25, 10:20 AM)
Average49 °F72%29.98 "Hg
* Reported Apr 18 2:20 PM — May 3 2:20 PM, Buchholz in der Nordheide, Weather by CustomWeather, © 2015

Note: Actual official high and low records may vary slightly from our data, if they occured in-between our weather recording intervals... More about our weather records

Advertising

Buchholz in der Nordheide weather history for previous 24 hours

 ConditionsComfort  
Time TempWeatherWind HumidityBarometerVisibility
2:20 PM
Sun, May 3
64 °FPassing clouds.18 mph40%29.71 "HgN/A
1:50 PM64 °FSunny.20 mph40%29.71 "Hg10 mi
1:20 PM63 °FPassing clouds.15 mph42%29.71 "HgN/A
12:50 PM61 °FPassing clouds.16 mph42%29.74 "HgN/A
12:20 PM61 °FSunny.20 mph42%29.74 "Hg10 mi
11:50 AM61 °FPassing clouds.17 mph45%29.77 "HgN/A
11:20 AM57 °FPassing clouds.18 mph44%29.80 "HgN/A
10:50 AM57 °FSunny.17 mph44%29.80 "Hg10 mi
10:20 AM55 °FSunny.14 mph51%29.80 "Hg10 mi
9:50 AM54 °FPassing clouds.15 mph51%29.80 "HgN/A
9:20 AM52 °FPassing clouds.12 mph58%29.83 "HgN/A
8:50 AM50 °FSunny.10 mph62%29.83 "Hg10 mi
8:20 AM48 °FPassing clouds.7 mph66%29.83 "HgN/A
7:50 AM46 °FSunny.6 mph76%29.86 "Hg10 mi
7:20 AM43 °FSunny.6 mph81%29.83 "Hg10 mi
6:50 AM39 °FSunny.6 mph93%29.83 "Hg10 mi
6:20 AM37 °FClear.5 mph87%29.83 "Hg10 mi
5:50 AM37 °FClear.3 mph87%29.86 "Hg10 mi
5:20 AM37 °FClear.5 mph87%29.86 "Hg10 mi
4:50 AM37 °FClear.5 mph87%29.86 "Hg10 mi
4:20 AM37 °FClear.5 mph87%29.86 "Hg10 mi
3:50 AM37 °FClear.6 mph81%29.89 "Hg10 mi
3:20 AM37 °FClear.6 mph81%29.89 "Hg10 mi
2:50 AM37 °FClear.6 mph81%29.89 "Hg10 mi
2:20 AM37 °FClear.5 mph81%29.89 "Hg10 mi
1:50 AM37 °FClear.5 mph87%29.89 "Hg10 mi
1:20 AM39 °FClear.5 mph81%29.89 "Hg10 mi
12:50 AM39 °FPassing clouds.3 mph81%29.92 "HgN/A
12:20 AM39 °FPassing clouds.3 mph81%29.92 "HgN/A
11:50 PM
Sat, May 2
39 °FPassing clouds.3 mph81%29.92 "HgN/A
11:20 PM41 °FClear.3 mph76%29.92 "Hg10 mi
10:50 PM41 °FClear.2 mph76%29.92 "Hg10 mi
10:20 PM41 °FClear.5 mph76%29.92 "Hg10 mi
9:50 PM43 °FSunny.3 mph76%29.92 "Hg10 mi
9:20 PM45 °FSunny.3 mph71%29.92 "Hg10 mi
8:50 PM48 °FSunny.5 mph58%29.92 "Hg10 mi
8:20 PM50 °FPassing clouds.8 mph54%29.89 "HgN/A
7:50 PM50 °FPassing clouds.9 mph58%29.89 "HgN/A
7:20 PM52 °FPassing clouds.10 mph54%29.89 "HgN/A
6:50 PM52 °FPassing clouds.12 mph50%29.89 "HgN/A
6:20 PM54 °FSunny.9 mph54%29.89 "Hg10 mi
5:50 PM54 °FSunny.12 mph51%29.89 "Hg10 mi
5:20 PM54 °FScattered clouds.7 mph54%29.89 "HgN/A
4:50 PM54 °FScattered clouds.7 mph58%29.89 "HgN/A
4:20 PM54 °FBroken clouds.6 mph54%29.89 "HgN/A
3:50 PM54 °FBroken clouds.8 mph58%29.89 "HgN/A
3:20 PM52 °FPartly sunny.12 mph58%29.89 "HgN/A
Weather by CustomWeather, © 2015

See weather overviewHow to use our weather pages